Flag for Germany Weather past 2 weeks in Forchheim, Bavaria, Germany

Now
52 °F

Fog.


Feels Like: 52 °F
Forecast: 61 / 85 °F
Wind: 1 mph from East

Location: Bamberg

Current Time: Aug 1, 2014 at 5:49:40 AM

Latest Report: Aug 1, 2014 at 5:00 AM


Visibility: 3 mi

Pressure: 29.98 "Hg

Humidity: 99%

Dew point: 51 °F

Location of ForchheimLocation

Historic Weather in Forchheim — Graph

°F

Forchheim temperature yesterday

Maximum temperature yesterday: 78 °F (at 4:00 PM)
Minimum temperature yesterday: 58 °F (at 11:00 PM)
Average temperature yesterday: 69 °F

Past Weeks' High & Low Weather Summary

 TemperatureHumidityPressure
High90 °F (Jul 19, 4:00 PM)100% (Jul 17, 4:00 AM)30.19 "Hg (Jul 17, 4:00 AM)
Low52 °F (Jul 25, 6:00 AM)26% (Jul 20, 4:00 PM)29.70 "Hg (Jul 29, 6:00 PM)
Average70 °F74%29.91 "Hg
* Reported Jul 17 4:00 AM — Aug 1 4:00 AM, Forchheim, Weather by CustomWeather, © 2014

Note: Actual official high and low records may vary slightly from our data, if they occured in-between our weather recording intervals... More about our weather records

Advertising

Forchheim weather history for previous 24 hours

 ConditionsComfort  
Time TempWeatherWind HumidityBarometerVisibility
4:00 AM
Aug 1
52 °FFog.1 mph100%29.97 "Hg3 mi
3:00 AM54 °FFog.1 mph99%29.98 "Hg4 mi
2:00 AM55 °FFog.1 mph98%29.98 "Hg4 mi
1:00 AM56 °FPassing clouds.1 mph98%29.98 "Hg7 mi
12:00 AM57 °FClear.1 mph97%29.98 "Hg7 mi
11:00 PM
Jul 31
58 °FClear.1 mph95%29.97 "Hg9 mi
10:00 PM61 °FFog.1 mph88%29.96 "Hg3 mi
9:00 PM65 °FPassing clouds.1 mph84%29.94 "Hg22 mi
8:00 PM72 °FSunny.1 mph63%29.93 "Hg28 mi
7:00 PM76 °FHaze.2 mph43%29.92 "Hg37 mi
6:00 PM77 °FOvercast.1 mph41%29.93 "Hg40 mi
5:00 PM78 °FOvercast.5 mph40%29.93 "Hg37 mi
4:00 PM78 °FPartly sunny.2 mph40%29.94 "Hg34 mi
3:00 PM78 °FPassing clouds.3 mph42%29.94 "Hg22 mi
2:00 PM74 °FPartly sunny.2 mph47%29.96 "Hg28 mi
1:00 PM75 °FOvercast.3 mph47%29.96 "Hg37 mi
12:00 PM74 °FOvercast.2 mph51%29.98 "Hg34 mi
11:00 AM72 °FPassing clouds.3 mph54%29.98 "Hg37 mi
10:00 AM70 °FPassing clouds.5 mph63%29.98 "Hg28 mi
9:00 AM67 °FOvercast.3 mph79%29.98 "Hg17 mi
8:00 AM64 °FPartly sunny.3 mph86%29.97 "Hg14 mi
7:00 AM64 °FOvercast.2 mph87%29.96 "Hg14 mi
6:00 AM65 °FOvercast.2 mph85%29.95 "Hg14 mi
5:00 AM65 °FOvercast.1 mph86%29.92 "Hg13 mi
Weather by CustomWeather, © 2014

See weather overviewHow to use our weather pages